BMCB-30 Weather Reports


time (UTC)temp
F
wind
direction
speed
knots
gust
knots
rain 1hr
in
rain 24hr
in
rain mn
in
humidity
%
barometer
mb
20260505122046 59 0 0.0 0.0 0.00 0.03 0.01 85 1009.9
20260505121043 60 0 0.0 0.0 0.00 0.03 0.01 84 1009.9
20260505120044 60 0 0.0 0.0 0.00 0.03 0.01 85 1009.9
20260505115045 60 0 0.0 0.0 0.00 0.03 0.01 84 1009.9
20260505114048 60 0 0.0 0.0 0.00 0.03 0.01 84 1009.9
20260505113043 61 0 0.0 0.0 0.00 0.03 0.01 85 1009.9
20260505112046 60 0 0.0 0.0 0.00 0.03 0.01 86 1010.0
20260505111045 60 0 0.0 0.0 0.00 0.03 0.01 86 1010.1
20260505100044 58 0 0.0 0.0 0.00 0.03 0.01 89 1010.5
20260505095046 59 0 0.0 0.0 0.00 0.03 0.01 88 1010.5
20260505094045 58 0 0.0 0.0 0.00 0.03 0.01 88 1010.5
20260505093045 59 0 0.0 0.0 0.00 0.03 0.01 89 1010.5
20260505092044 58 0 0.0 0.0 0.00 0.03 0.01 88 1010.6
20260505091048 58 0 0.0 0.0 0.00 0.03 0.01 90 1010.6
20260505090045 57 0 0.0 0.0 0.00 0.03 0.01 91 1010.6
20260505085046 57 0 0.0 0.0 0.00 0.03 0.01 92 1010.7
20260505084043 57 0 0.0 0.0 0.00 0.03 0.01 92 1010.8
20260505083047 57 0 0.0 0.0 0.00 0.03 0.01 93 1010.8
20260505082045 57 0 0.0 0.0 0.00 0.03 0.01 92 1010.8
20260505081045 56 0 0.0 0.0 0.00 0.03 0.01 93 1010.9
20260505080043 56 0 0.0 0.0 0.00 0.03 0.01 96 1010.9
20260505074047 55 0 0.0 0.0 0.00 0.03 0.01 10 1011.0
20260505073044 54 0 0.0 0.0 0.00 0.03 0.01 10 1011.1
20260505071046 54 0 0.0 0.0 0.00 0.03 0.01 10 1011.2
20260505065046 53 0 0.0 0.0 0.00 0.03 0.01 10 1011.4
20260505064044 53 0 0.0 0.0 0.00 0.03 0.01 10 1011.3
20260505060043 52 0 0.0 0.0 0.00 0.03 0.01 10 1011.5
20260505055046 51 0 0.0 0.0 0.00 0.03 0.01 10 1011.5
20260505054046 51 0 0.0 0.0 0.00 0.03 0.01 10 1011.5
20260505053046 51 0 0.0 0.0 0.00 0.03 0.01 10 1011.5
20260505051045 51 0 0.0 0.0 0.00 0.03 0.01 10 1011.4
20260505041043 50 0 0.0 0.0 0.00 0.03 0.01 10 1011.6
20260505040043 50 0 0.0 0.0 0.00 0.03 0.01 10 1011.7
20260505035045 50 0 0.0 0.0 0.00 0.03 0.01 10 1011.7
20260505034045 50 0 0.0 0.0 0.00 0.03 0.01 10 1011.8
20260505033046 50 0 0.0 0.0 0.00 0.03 0.01 10 1011.9
20260505032044 50 0 0.0 0.0 0.00 0.03 0.01 10 1012.1
20260505031045 50 0 0.0 0.0 0.00 0.03 0.01 10 1012.3
20260505030043 50 0 0.0 0.0 0.01 0.03 0.01 10 1012.3
20260505025044 50 0 0.0 0.0 0.01 0.03 0.01 10 1012.3
20260505024046 50 0 0.0 0.0 0.01 0.03 0.01 10 1012.3
20260505023049 50 0 0.0 0.0 0.01 0.03 0.01 10 1012.4
20260505021049 50 0 0.0 0.0 0.01 0.03 0.01 10 1012.5
20260505014045 49 0 0.0 0.0 0.00 0.02 0.00 10 1012.5
20260505013042 49 0 0.0 0.0 0.00 0.02 0.00 10 1012.4
20260505011044 49 0 0.0 0.0 0.00 0.02 0.00 10 1012.4
20260505010047 49 0 0.0 0.0 0.00 0.02 0.00 10 1012.3
20260505005049 50 0 0.0 0.0 0.00 0.02 0.00 10 1012.3
20260505004047 50 0 0.0 0.0 0.00 0.02 0.00 10 1012.5
20260505003045 50 0 0.0 0.0 0.00 0.02 0.00 10 1012.7
20260505002042 50 0 0.0 0.0 0.00 0.02 0.00 10 1012.9
20260505001045 50 0 0.0 0.0 0.00 0.02 0.00 10 1012.9
20260505000046 50 0 0.0 0.0 0.00 0.02 0.00 10 1013.0
20260504235046 51 0 0.0 0.0 0.00 0.02 0.00 10 1013.0
20260504234046 51 0 0.0 0.0 0.00 0.02 0.00 10 1013.0
20260504233048 51 0 0.0 0.0 0.00 0.02 0.00 10 1013.2
20260504231049 51 0 0.0 0.0 0.00 0.02 0.00 10 1013.3
20260504230045 51 0 0.0 0.0 0.00 0.02 0.00 10 1013.3
20260504225047 51 0 0.0 0.0 0.00 0.02 0.00 99 1013.6
20260504224051 51 0 0.0 0.0 0.00 0.02 0.00 99 1013.6
20260504223046 51 0 0.0 0.0 0.00 0.02 0.00 99 1013.5
20260504222050 51 0 0.0 0.0 0.00 0.02 0.00 99 1013.6
20260504221048 51 0 0.0 0.0 0.00 0.02 0.00 99 1013.8
20260504220047 52 0 0.0 0.0 0.00 0.02 0.00 99 1013.8
20260504215047 52 0 0.0 0.0 0.00 0.02 0.02 99 1013.8
20260504214052 52 0 0.0 0.0 0.00 0.02 0.02 99 1013.8
20260504213050 52 0 0.0 0.0 0.00 0.02 0.02 98 1014.0
20260504212052 53 0 0.0 0.0 0.00 0.02 0.02 98 1014.0
20260504211050 53 0 0.0 0.0 0.00 0.02 0.02 98 1014.1
20260504210052 53 0 0.0 0.0 0.00 0.02 0.02 98 1014.1
20260504204051 53 0 0.0 0.0 0.00 0.02 0.02 97 1014.2
20260504203054 53 0 0.0 0.0 0.00 0.02 0.02 97 1014.2
20260504202058 53 0 0.0 0.0 0.00 0.02 0.02 97 1014.2
20260504200053 53 0 0.0 0.0 0.00 0.02 0.02 97 1014.1
20260504195050 53 0 0.0 0.0 0.00 0.02 0.02 97 1014.1
20260504194049 53 0 0.0 0.0 0.00 0.02 0.02 97 1014.0
20260504193046 53 0 0.0 0.0 0.00 0.02 0.02 96 1013.9
20260504192046 54 0 0.0 0.0 0.00 0.02 0.02 95 1013.8
20260504190049 54 0 0.0 0.0 0.00 0.02 0.02 94 1013.8
20260504184049 55 0 0.0 0.0 0.00 0.02 0.02 93 1013.6
20260504183050 55 0 0.0 0.0 0.00 0.02 0.02 92 1013.5
20260504180047 56 0 0.0 0.0 0.00 0.02 0.02 92 1013.5
20260504175048 56 0 0.0 0.0 0.00 0.02 0.02 93 1013.7
20260504174050 56 0 0.0 0.0 0.00 0.02 0.02 93 1013.7
20260504173051 56 0 0.0 0.0 0.00 0.02 0.02 93 1013.8
20260504172046 56 0 0.0 0.0 0.00 0.02 0.02 93 1013.9
20260504171050 56 0 0.0 0.0 0.00 0.02 0.02 92 1013.8
20260504151047 57 0 0.0 0.0 0.01 0.02 0.02 90 1014.1
20260504141044 58 0 0.0 0.0 0.01 0.02 0.02 91 1014.4